Location: Beaver Meadows
(40.3729°N, 105.6140°W)
Time: 19:32:54
(UTC-07:00)

Iridium 67 - Visible Passes

Search period start: 29 January 2015 00:00
Search period end: 08 February 2015 00:00
Orbit: 776 x 779 km, 86.4° (Epoch: 29 January)

Date Brightness Start Highest point End Pass type
(mag) Time Alt. Az. Time Alt. Az. Time Alt. Az.
29 Jan 8.5 05:24:49 10° ESE 05:27:30 15° E 05:30:25 10° NE visible
29 Jan 7.7 19:14:11 10° NNW 19:18:32 26° W 19:22:45 10° SW visible
30 Jan 5.9 06:29:02 10° S 06:34:12 72° E 06:39:25 10° N visible
30 Jan 6.5 18:40:09 10° NNW 18:45:09 48° W 18:50:08 10° SSW visible
31 Jan 7.1 05:56:02 10° SSE 06:00:46 38° E 06:05:36 10° NNE visible
31 Jan 5.5 18:06:27 10° N 18:11:42 90° SE 18:16:54 10° S visible
01 Feb 8.1 05:23:41 10° SE 05:27:27 21° E 05:31:22 10° NNE visible
01 Feb 8.3 19:14:54 10° NW 19:18:30 19° W 19:21:54 10° WSW visible
02 Feb 8.7 04:52:49 10° E 04:54:12 11° ENE 04:55:54 10° ENE visible
02 Feb 5.5 06:29:06 10° S 06:34:18 79° W 06:39:32 10° N visible
02 Feb 7.3 18:40:31 10° NNW 18:45:11 33° W 18:49:46 10° SSW visible
03 Feb 6.3 05:55:46 10° SSE 06:00:48 56° E 06:05:55 10° NNE visible
03 Feb 6.1 18:06:37 10° N 18:11:47 62° W 18:16:54 10° SSW visible
04 Feb 7.5 05:22:58 10° SE 05:27:26 30° E 05:31:58 10° NNE visible
04 Feb 8.6 19:16:07 10° NW 19:18:26 13° WNW 19:20:28 10° WSW visible
05 Feb 8.4 04:51:01 10° ESE 04:54:07 17° E 04:57:28 10° NE visible
05 Feb 5.6 06:29:21 10° SSW 06:34:26 54° W 06:39:33 10° N visible
05 Feb 8.0 18:41:03 10° NNW 18:45:10 23° W 18:49:09 10° SW visible
06 Feb 5.6 05:55:42 10° S 06:00:53 82° E 06:06:07 10° N visible
06 Feb 6.9 18:06:54 10° NNW 18:11:49 43° W 18:16:41 10° SSW visible
07 Feb 6.7 05:22:33 10° SSE 05:27:26 44° E 05:32:23 10° NNE visible
